{"data":{"norad_id":68568,"intl_designator":"2026-070AC","name":"STARLINK-37283","alt_names":[],"object_type":"PAYLOAD","status":"ACTIVE","operator":null,"country":"US","launch_date":"2026-04-02","launch_site_code":"AFETR","launch_vehicle":null,"mission":null,"orbit_class":"UNKNOWN","rcs_meters":null,"size_class":null,"mass_kg":null,"dimensions":null,"purposes":["comms"],"wikipedia_slug":null,"has_3d_model":false,"image_url":null,"decayed_at":null,"tle_current":{"epoch":"2026-05-24T21:26:11.997888Z","epoch_age_seconds":78172,"freshness":"FRESH","line1":"1 68568U 26070AC  26144.89319442  .00022838  00000+0  68482-3 0  9998","line2":"2 68568  53.1601   8.5003 0001073  79.3471 280.7652 15.34408382  8229","mean_motion":15.34408382,"eccentricity":0.0001073,"inclination_deg":53.1601,"raan_deg":8.5003,"arg_perigee_deg":79.3471,"mean_anomaly_deg":280.7652,"bstar":0.00068482,"rev_number":822,"period_min":93.847245419961,"perigee_km":461.94430776548,"apogee_km":463.4123467347,"semimajor_km":6840.8153272501,"source":"CELESTRAK","updated_at":"2026-05-25T13:38:21.965271Z"}}}